Printer-friendly version
Follow the MPC on Twitter Follow the MPC on Facebook The MPC blog
Minor Planet Center

MPEC 2008-R27 : 2008 RH1

The following Minor Planet Electronic Circular may be linked-to from your own Web pages, but must not otherwise be redistributed electronically.

A form allowing access to any MPEC is at the bottom of this page.


Read MPEC 2008-R26 Read MPEC 2008-R28


M.P.E.C. 2008-R27                                Issued 2008 Sept. 5, 16:22 UT

     The Minor Planet Electronic Circulars contain information on unusual
         minor planets and routine data on comets.  They are published
   on behalf of Commission 20 of the International Astronomical Union by the
          Minor Planet Center, Smithsonian Astrophysical Observatory,
                          Cambridge, MA 02138, U.S.A.

             Prepared using the Tamkin Foundation Computer Network

                              MPC@CFA.HARVARD.EDU
          URL http://www.cfa.harvard.edu/iau/mpc.html  ISSN 1523-6714

                                   2008 RH1

Observations:
     K08R01H* C2008 09 04.34933 00 47 18.68 +02 13 45.0          20.9 V ER027691
     K08R01H  C2008 09 04.36690 00 47 16.44 +02 14 03.0          20.7 V ER027691
     K08R01H  C2008 09 04.38447 00 47 14.15 +02 14 21.4          20.5 V ER027691
     K08R01H  C2008 09 04.43284 00 47 07.80 +02 15 09.5          20.8 V ER027291
     K08R01H  C2008 09 04.43691 00 47 07.29 +02 15 13.5          20.9 V ER027291
     K08R01H  C2008 09 04.44068 00 47 06.79 +02 15 17.3          20.9 V ER027291
     K08R01H  C2008 09 05.33976 00 45 20.05 +02 30 25.0          20.7 V ER027291
     K08R01H  C2008 09 05.34551 00 45 19.26 +02 30 30.8          20.7 V ER027291
     K08R01H  C2008 09 05.34934 00 45 18.75 +02 30 34.7          20.8 V ER027291

Observer details:
291 LPL/Spacewatch II.  Observers T. H. Bressi, J. V. Scotti.  1.8-m f/2.7
    reflector + CCD.
691 Steward Observatory, Kitt Peak.  Observer T. H. Bressi.  0.9-m f/3
    reflector + CCD.

Orbital elements:
2008 RH1                                                 Earth MOID = 0.1650 AU
Epoch 2008 Aug. 22.0 TT = JDT 2454700.5                 MPC
M  43.40758              (2000.0)            P               Q
n   0.60740190     Peri.  284.69592     +0.12455668     +0.99204504
a   1.3808673      Node   352.38884     -0.84915328     +0.09707673
e   0.1904156      Incl.    7.91044     -0.51324880     +0.08014205
P   1.62           H   22.0           G   0.15
From 9 observations 2008 Sept. 4-5.

Ephemeris:
2008 RH1                 a,e,i = 1.38, 0.19, 8                   q = 1.1179
Date    TT    R. A. (2000) Decl.     Delta      r     Elong.  Phase     V
2008 09 01    00 53.61   +01 15.3    0.273    1.245   145.8    27.1    20.9
2008 09 11    00 33.29   +03 59.2    0.279    1.272   159.3    16.3    20.6
2008 09 21    00 10.95   +06 03.7    0.298    1.300   172.0     6.2    20.4
2008 10 01    23 51.12   +07 26.4    0.331    1.328   169.5     7.9    20.8
2008 10 11    23 37.19   +08 18.6    0.378    1.356   157.9    16.1    21.4
2008 10 21    23 30.21   +08 55.8    0.438    1.384   147.2    23.0    22.0

Sonia Keys                   (C) Copyright 2008 MPC           M.P.E.C. 2008-R27

Read MPEC 2008-R26 Read MPEC 2008-R28


MPEC number:

Enter an MPEC number in one of the following forms:

  • 1997-B01 (the full form)
  • J97B01 (the packed version of the full form)
  • B01 (the abbreviated form)

Valid HTML 4.01!